Tracking 23758 objects as of 28-Oct-2021
HD Live streaming from Space Station
objects crossing your sky now

SL-8 DEB

Track SL-8 DEB now!
10-day predictions


NORAD ID: 21167
Int'l Code: 1991-009AE
Perigee: 1,450.7 km
Apogee: 1,668.2 km
Inclination: 73.9 °
Period: 117.1 minutes
Semi major axis: 7930 km
RCS: 0.0569 m2 (small)
Launch date: February 12, 1991
Source: Commonwealth of Independent States (former USSR) (CIS)
Launch site: PLESETSK MISSILE AND SPACE COMPLEX (PKMTR)

Note: This is SATELLITE DEBRIS
aabbcc
Your satellite tracking list
Your tracking list is empty




NASA's NSSDC Master Catalog

Two Line Element Set (TLE):
1 21167U 91009AE  21300.61535480 -.00000029  00000-0 -11367-3 0  9998
2 21167  73.9138 153.9026 0137126  14.8660  54.7222 12.29292512375261
Source of the keplerian elements: AFSPC